Regional Weather Roundup
Issued by NWS

Home | Current Version | Previous Version | Text Only | Print | Product List | Glossary Off
Versions: 1 2 3 4 5 6 7 8 9 10 11 12 13 14 15 16 17 18 19 20 21 22 23 24 25 26 27 28 29 30 31 32 33 34 35 36 37 38 39 40 41 42 43 44 45 46 47 48 49 50

000
ASUS43 KLSX 180757
RWRMO

WEATHER SUMMARY FOR MISSOURI
NATIONAL WEATHER SERVICE SPRINGFIELD MO
300 AM CDT FRI AUG 18 2017

NOTE: "FAIR" INDICATES FEW OR NO CLOUDS BELOW 12,000 FEET WITH NO
       SIGNIFICANT WEATHER AND/OR OBSTRUCTIONS TO VISIBILITY.
       CURRENT SKY AND/OR WEATHER CONDITIONS ARE NOT AVAILABLE FOR
       CHILLICOTHE AND FARMINGTON.

MOZ001>031-035>038-043-044-053-054-180900-
...NORTHERN AND WESTERN MISSOURI...

CITY           SKY/WX    TMP DP  RH WIND       PRES   REMARKS
KANSAS CTY INT PTCLDY    65  62  90 S6        29.96S
LEE`S SUMMIT   CLOUDY    67  63  87 SW6       29.97S
ST JOSEPH      PTCLDY    58  58 100 CALM      29.95S
CHILLICOTHE      N/A     60  60 100 CALM      29.96R

$$
MOZ066>068-077>081-088>096-101>105-180900-
...SOUTHWEST MISSOURI...

CITY           SKY/WX    TMP DP  RH WIND       PRES   REMARKS
SPRINGFIELD    CLEAR     63  61  93 CALM      30.01R
JOPLIN         PTCLDY    65  63  93 S3        30.00S

$$
MOZ032>034-039>042-045>050-055>058-069>072-180900-
...CENTRAL MISSOURI...

CITY           SKY/WX    TMP DP  RH WIND       PRES   REMARKS
COLUMBIA       NOT AVBL
JEFFERSON CITY CLOUDY    66  65  96 CALM      29.95R
ROLLA          CLEAR     63  62  97 SW7       29.98R
SEDALIA        CLOUDY    67  65  93 W3        29.98R
WARRENSBURG    CLOUDY    61  61 100 SW3       29.96S

$$
MOZ051-052-059>065-180900-
...EAST CENTRAL MISSOURI...

CITY           SKY/WX    TMP DP  RH WIND       PRES   REMARKS
ST LOUIS INTL  CLOUDY    70  64  81 W7        29.91S

$$
MOZ072>076-082>087-097>100-106>115-180900-
...SOUTH CENTRAL AND SOUTHEAST MISSOURI...

CITY           SKY/WX    TMP DP  RH WIND       PRES   REMARKS
CAPE GIRARDEAU FOG       65  64  97 W3        29.92S VSB 1/2
POPLAR BLUFF   PTCLDY    67  67 100 CALM      29.94S
WEST PLAINS    CLEAR     64  62  93 CALM      30.01S

$$



USA.gov is the U.S. government's official web portal to all federal, state and local government web resources and services.